timestamp,surface_pressure_avg,surface_temp_avg,battery_voltage,lat,long
2022-09-11 00:09:00+00:00,407.4912,14.45,11.46,47.84626,-54.09684
2022-09-11 00:19:00+00:00,404.6178,14.56,11.46,47.84626,-54.09684
2022-09-11 00:29:00+00:00,401.8011,14.7,11.46,47.84626,-54.09684
2022-09-11 00:39:00+00:00,401.2097,12.69,11.46,47.84626,-54.09684
2022-09-11 00:49:00+00:00,394.9728,12.79,11.46,47.84626,-54.09684
2022-09-11 00:59:00+00:00,391.4746,12.6,11.46,47.84626,-54.09684
2022-09-11 01:09:00+00:00,391.8228,11.77,11.46,47.84626,-54.09684
2022-09-11 01:19:00+00:00,378.6647,11.4,11.46,47.84626,-54.09684
2022-09-11 01:29:00+00:00,370.7213,11.75,11.46,47.84626,-54.09684
2022-09-11 01:39:00+00:00,370.013,11.98,11.46,47.84626,-54.09684
2022-09-11 01:49:00+00:00,362.3095,12.79,11.46,47.84626,-54.09684
2022-09-11 01:59:00+00:00,349.5162,12.77,11.46,47.84626,-54.09684
2022-09-11 02:09:00+00:00,340.733,11.3,11.46,47.84626,-54.09684
2022-09-11 02:19:00+00:00,333.288,10.62,11.46,47.84626,-54.09684
2022-09-11 02:29:00+00:00,319.6613,9.45,11.46,47.84626,-54.09684
2022-09-11 02:39:00+00:00,307.5613,9.27,11.46,47.84626,-54.09684
2022-09-11 02:49:00+00:00,300.5081,9.3,11.46,47.84626,-54.09684
2022-09-11 02:59:00+00:00,291.353,9.37,11.46,47.84626,-54.09684
2022-09-11 03:09:00+00:00,284.2247,9.33,11.46,47.84626,-54.09684
2022-09-11 03:19:00+00:00,273.0881,13.28,11.46,47.84626,-54.09684
2022-09-11 03:29:00+00:00,262.4798,13.57,11.46,47.84626,-54.09684
2022-09-11 03:39:00+00:00,252.7397,12.76,11.46,47.84626,-54.09684
2022-09-11 03:49:00+00:00,239.7014,13.43,11.46,47.84626,-54.09684
2022-09-11 03:59:00+00:00,228.3981,12.79,11.46,47.84626,-54.09684
2022-09-11 04:09:00+00:00,223.3148,13.22,11.46,47.84626,-54.09684
2022-09-11 04:19:01+00:00,214.2814,13.56,11.46,47.84626,-54.09684
2022-09-11 04:29:01+00:00,203.1598,13.6,11.46,47.84626,-54.09684
2022-09-11 04:39:01+00:00,195.5514,13.6,11.46,47.84626,-54.09684
2022-09-11 04:49:01+00:00,191.5198,13.6,11.46,47.84626,-54.09684
2022-09-11 04:59:01+00:00,184.6698,13.6,11.46,47.84626,-54.09684
2022-09-11 05:09:01+00:00,177.9182,12.95,11.46,47.84626,-54.09684
2022-09-11 05:19:00+00:00,179.3331,12.73,11.46,47.84626,-54.09684
2022-09-11 05:29:00+00:00,177.9798,12.8,11.46,47.84626,-54.09684
2022-09-11 05:39:00+00:00,169.7032,12.73,11.46,47.84626,-54.09684
2022-09-11 05:49:00+00:00,167.2215,11.7,11.46,47.84626,-54.09684
2022-09-11 05:59:00+00:00,171.1765,12.08,11.46,47.84626,-54.09684
2022-09-11 06:09:00+00:00,174.9115,11.99,11.46,47.84626,-54.09684
2022-09-11 06:19:00+00:00,173.0132,11.8,11.46,47.84626,-54.09684
2022-09-11 06:29:00+00:00,170.2715,11.57,11.46,47.84626,-54.09684
2022-09-11 06:39:00+00:00,177.0182,11.28,11.46,47.84626,-54.09684
2022-09-11 06:49:00+00:00,180.7731,11.4,11.46,47.84626,-54.09684
2022-09-11 06:59:00+00:00,176.4464,11.17,11.46,47.84626,-54.09684
2022-09-11 07:09:00+00:00,179.0515,10.4,11.46,47.84626,-54.09684
2022-09-11 07:19:00+00:00,187.1465,10.63,11.46,47.84626,-54.09684
2022-09-11 07:29:00+00:00,191.0898,11.0,11.46,47.84626,-54.09684
2022-09-11 07:39:00+00:00,193.5297,10.44,11.46,47.84626,-54.09684
2022-09-11 07:49:00+00:00,203.3898,9.76,11.46,47.84626,-54.09684
2022-09-11 07:59:00+00:00,209.4081,9.4,11.46,47.84626,-54.09684
2022-09-11 08:09:00+00:00,209.9348,9.16,11.46,47.84626,-54.09684
2022-09-11 08:19:00+00:00,215.3514,8.46,11.46,47.84626,-54.09684
2022-09-11 08:29:00+00:00,217.5464,9.27,11.46,47.84626,-54.09684
2022-09-11 08:39:00+00:00,220.5664,9.57,11.46,47.84626,-54.09684
2022-09-11 08:49:00+00:00,230.7298,9.13,11.46,47.84626,-54.09684
2022-09-11 08:59:00+00:00,238.0181,9.97,11.46,47.84626,-54.09684
2022-09-11 09:09:00+00:00,239.7848,9.53,11.46,47.84626,-54.09684
2022-09-11 09:19:00+00:00,244.7165,9.39,11.46,47.84626,-54.09684
2022-09-11 09:29:00+00:00,254.5081,9.1,11.46,47.84626,-54.09684
2022-09-11 09:39:00+00:00,265.0831,9.62,11.46,47.84626,-54.09684
2022-09-11 09:49:00+00:00,271.2648,9.8,11.46,47.84626,-54.09684
2022-09-11 09:59:00+00:00,274.0364,9.62,11.46,47.84626,-54.09684
2022-09-11 10:09:00+00:00,280.7047,9.25,11.46,47.84626,-54.09684
2022-09-11 10:19:01+00:00,292.348,7.86,11.46,47.84626,-54.09684
2022-09-11 10:29:01+00:00,302.223,7.61,11.46,47.84626,-54.09684
2022-09-11 10:39:01+00:00,309.293,6.77,11.46,47.84626,-54.09684
2022-09-11 10:49:01+00:00,314.9297,6.48,11.46,47.84626,-54.09684
2022-09-11 10:59:01+00:00,324.2596,6.5,11.46,47.84626,-54.09684
2022-09-11 11:09:01+00:00,333.5447,7.09,11.46,47.84626,-54.09684
2022-09-11 11:19:00+00:00,338.2112,8.44,11.46,47.84626,-54.09684
2022-09-11 11:29:00+00:00,340.6213,8.21,11.46,47.84626,-54.09684
2022-09-11 11:39:00+00:00,345.7614,7.98,11.46,47.84626,-54.09684
2022-09-11 11:49:00+00:00,349.6496,8.29,11.46,47.84626,-54.09684
2022-09-11 11:59:00+00:00,352.7197,8.4,11.46,47.84626,-54.09684
2022-09-11 12:09:00+00:00,360.3246,8.35,11.46,47.84626,-54.09684
2022-09-11 12:19:00+00:00,365.8013,8.4,11.46,47.84626,-54.09684
2022-09-11 12:29:00+00:00,366.1263,8.66,11.46,47.84626,-54.09684
2022-09-11 12:39:00+00:00,367.1796,8.3,11.46,47.84626,-54.09684
2022-09-11 12:49:00+00:00,369.1879,7.94,11.46,47.84626,-54.09684
2022-09-11 12:59:00+00:00,370.4196,8.19,11.46,47.84626,-54.09684
2022-09-11 13:09:00+00:00,368.5745,8.09,11.46,47.84626,-54.09684
2022-09-11 13:19:00+00:00,366.4996,7.7,11.53,47.84626,-54.09684
2022-09-11 13:29:00+00:00,358.0379,7.72,11.53,47.84626,-54.09684
2022-09-11 13:39:00+00:00,349.7263,7.44,11.53,47.84626,-54.09684
2022-09-11 13:49:00+00:00,350.2396,6.86,11.53,47.84626,-54.09684
2022-09-11 13:59:00+00:00,344.6013,7.65,11.53,47.84626,-54.09684
2022-09-11 14:09:00+00:00,335.0764,7.33,11.53,47.84626,-54.09684
2022-09-11 14:19:00+00:00,328.8013,6.96,11.53,47.84626,-54.09684
2022-09-11 14:29:00+00:00,325.3896,7.24,11.53,47.84626,-54.09684
2022-09-11 14:39:00+00:00,317.3396,7.28,11.53,47.84626,-54.09684
2022-09-11 14:49:00+00:00,302.7396,6.44,11.53,47.84626,-54.09684
2022-09-11 14:59:00+00:00,296.4397,6.82,11.53,47.84626,-54.09684
2022-09-11 15:09:00+00:00,286.7365,7.53,11.53,47.84626,-54.09684
2022-09-11 15:19:00+00:00,274.6681,8.16,11.61,47.84626,-54.09684
2022-09-11 15:29:00+00:00,263.2364,8.1,11.61,47.84626,-54.09684
2022-09-11 15:39:00+00:00,257.4881,8.14,11.61,47.84626,-54.09684
2022-09-11 15:49:00+00:00,245.6348,8.24,11.61,47.84626,-54.09684
2022-09-11 15:59:00+00:00,234.8714,8.28,11.61,47.84626,-54.09684
2022-09-11 16:09:00+00:00,230.7647,8.09,11.61,47.84626,-54.09684
2022-09-11 16:19:00+00:00,227.2165,8.09,11.53,47.84626,-54.09684
2022-09-11 16:29:00+00:00,218.0548,8.23,11.53,47.84626,-54.09684
2022-09-11 16:39:00+00:00,207.5631,8.38,11.53,47.84626,-54.09684
2022-09-11 16:49:00+00:00,199.5565,8.3,11.53,47.84626,-54.09684
2022-09-11 16:59:00+00:00,192.5431,8.27,11.53,47.84626,-54.09684
2022-09-11 17:09:00+00:00,183.9631,8.2,11.53,47.84626,-54.09684
2022-09-11 17:19:00+00:00,175.7348,8.1,11.53,47.84626,-54.09684
2022-09-11 17:29:00+00:00,171.5482,8.0,11.53,47.84626,-54.09684
2022-09-11 17:39:00+00:00,169.2982,7.9,11.53,47.84626,-54.09684
2022-09-11 17:49:00+00:00,164.9348,7.8,11.53,47.84626,-54.09684
2022-09-11 17:59:00+00:00,163.2982,7.9,11.53,47.84626,-54.09684
2022-09-11 18:09:00+00:00,165.2965,7.9,11.53,47.84626,-54.09684
2022-09-11 18:19:00+00:00,165.3565,7.78,11.53,47.84626,-54.09684
2022-09-11 18:29:00+00:00,164.9165,7.7,11.53,47.84626,-54.09684
2022-09-11 18:39:00+00:00,168.0315,7.6,11.53,47.84626,-54.09684
2022-09-11 18:49:00+00:00,172.5898,7.52,11.53,47.84626,-54.09684
2022-09-11 18:59:00+00:00,177.2798,7.5,11.53,47.84626,-54.09684
2022-09-11 19:09:00+00:00,179.8415,7.5,11.53,47.84626,-54.09684
2022-09-11 19:19:00+00:00,186.3582,7.5,11.53,47.84626,-54.09684
2022-09-11 19:29:00+00:00,193.1315,7.54,11.53,47.84626,-54.09684
2022-09-11 19:39:00+00:00,196.4348,7.6,11.53,47.84626,-54.09684
2022-09-11 19:49:00+00:00,198.3148,7.6,11.53,47.84626,-54.09684
2022-09-11 19:59:00+00:00,203.9214,7.67,11.53,47.84626,-54.09684
2022-09-11 20:09:00+00:00,208.0515,7.7,11.53,47.84626,-54.09684
2022-09-11 20:19:00+00:00,210.6964,7.7,11.53,47.84626,-54.09684
2022-09-11 20:29:00+00:00,216.1964,7.7,11.53,47.84626,-54.09684
2022-09-11 20:39:00+00:00,223.8431,7.6,11.53,47.84626,-54.09684
2022-09-11 20:49:00+00:00,229.5431,7.6,11.53,47.84626,-54.09684
2022-09-11 20:59:00+00:00,235.6764,7.42,11.53,47.84626,-54.09684
2022-09-11 21:09:00+00:00,245.0782,7.21,11.53,47.84626,-54.09684
2022-09-11 21:19:00+00:00,252.8748,7.1,11.46,47.84626,-54.09684
2022-09-11 21:29:00+00:00,257.8614,7.07,11.46,47.84626,-54.09684
2022-09-11 21:39:00+00:00,263.1214,7.1,11.46,47.84626,-54.09684
2022-09-11 21:49:00+00:00,271.4131,7.14,11.46,47.84626,-54.09684
2022-09-11 21:59:00+00:00,278.7714,7.2,11.46,47.84626,-54.09684
2022-09-11 22:09:00+00:00,285.6481,7.15,11.46,47.84626,-54.09684
2022-09-11 22:19:00+00:00,295.3113,5.9,11.46,47.84626,-54.09684
2022-09-11 22:29:00+00:00,305.4347,5.89,11.46,47.84626,-54.09684
2022-09-11 22:39:00+00:00,313.8248,6.08,11.46,47.84626,-54.09684
2022-09-11 22:49:00+00:00,322.0397,5.29,11.46,47.84626,-54.09684
2022-09-11 22:59:00+00:00,332.6763,5.65,11.46,47.84626,-54.09684
2022-09-11 23:09:00+00:00,338.8996,6.35,11.46,47.84626,-54.09684
2022-09-11 23:19:00+00:00,345.0013,6.4,11.46,47.84626,-54.09684
2022-09-11 23:29:00+00:00,352.56300000000016,6.24,11.46,47.84626,-54.09684
2022-09-11 23:39:00+00:00,360.4246,6.46,11.46,47.84626,-54.09684
2022-09-11 23:49:00+00:00,364.003,6.7,11.46,47.84626,-54.09684
2022-09-11 23:59:00+00:00,367.7496,6.8,11.46,47.84626,-54.09684
